TIANMU-1 03

Last updated on Wed Sep 23 2026 00:03:10 GMT+0000 (Coordinated Universal Time)

1 55973U 23039A 26265.55923490 .00011500 00000+0 20833-3 0 9999 2 55973 97.5269 83.5646 0003674 99.4745 260.6921 15.49803001195900
UTC large
Height (km)
Speed (km/s)
/
Latitude / Longitude
Inclination (degrees)
Orbital Period (minutes)
Azimuth
Elevation
Range (km)
Doppler Factor

Next 0 passes for location: London (51.5072 / 0.1276)

No passes found over London.
TIANMU-1 03